Regional Weather Roundup
Issued by NWS

Home | Current Version | Previous Version | Graphics & Text | Print | Product List | Glossary On
Versions: 1 2 3 4 5 6 7 8 9 10 11 12 13 14 15 16 17 18 19 20 21 22 23 24 25 26 27 28 29 30 31 32 33 34 35 36 37 38 39 40 41 42 43 44 45 46 47 48 49 50
000
ASUS45 KBOI 260010
RWRID

IDAHO REGIONAL WEATHER ROUNDUP
NATIONAL WEATHER SERVICE BOISE ID
600 PM MDT MON MAY 25 2015

NOTE: "FAIR" INDICATES FEW OR NO CLOUDS BELOW 12000 FEET
WITH NO SIGNIFICANT WEATHER AND/OR OBSTRUCTIONS TO VISIBILITY

IDZ012-014-260100-
SOUTHWEST IDAHO


CITY           SKY/WX    TMP DP  RH WIND       PRES   REMARKS
BOISE          LGT RAIN  65  52  62 S13       29.85S
CALDWELL       CLOUDY    70  46  43 S17G24    29.84S
MOUNTAIN HOME  CLOUDY    66  48  52 N18       29.87F
$$

IDZ016-017-260100-
SOUTHCENTRAL IDAHO


CITY           SKY/WX    TMP DP  RH WIND       PRES   REMARKS
BURLEY         PTSUNNY   64  47  53 S17       29.89S
JEROME         CLOUDY    66  47  50 S13       29.90S
TWIN FALLS     CLOUDY    67  44  43 S13       29.88F
$$

IDZ019>023-260100-
SOUTHEAST IDAHO


CITY           SKY/WX    TMP DP  RH WIND       PRES   REMARKS
IDAHO FALLS    TSTM      58  46  64 W15G22    29.91R
POCATELLO      MOSUNNY   72  40  31 W8        29.89F
REXBURG        PTSUNNY   62  45  53 SW8       29.89F
$$

IDZ006-010-011-018-031-032-260100-
CENTRAL IDAHO MOUNTAINS


CITY           SKY/WX    TMP DP  RH WIND       PRES   REMARKS
MCCALL         CLOUDY    55  43  63 NE9       29.91F
HAILEY         PTSUNNY   64  45  48 SW12      29.92S
STANLEY          N/A     61  33  35 CALM      29.94F
SALMON         CLOUDY    68  39  34 NW8       29.81F
CHALLIS        PTSUNNY   65  40  39 N9        29.85R
$$

IDZ002-004-006-007-026-260100-
NORTHERN IDAHO


CITY           SKY/WX    TMP DP  RH WIND       PRES   REMARKS
LEWISTON       PTSUNNY   73  47  39 N7        29.84F
LOWELL           N/A     63  55  75 CALM      29.89F
COEUR D`ALENE  PTSUNNY   66  50  55 W8        29.87S
MULLAN PASS    CLOUDY    48  45  89 VRB3      29.98R
$$


USA.gov is the U.S. government's official web portal to all federal, state and local government web resources and services.